Simultaneous Nadir Overpasses (SNOs) Predictions

Prediction of SNOs between METOP-B and NOAA-19 Satellite Orbit:

Table of predicted SNOs for the next 14.0 days since TLE Epoch: 7/21/2023
Index Date (METOP-B) Time (METOP-B) Lat,Lon (METOP-B) SZA (METOP-B ) Date (NOAA-19) Time (NOAA-19) Lat,Lon (NOAA-19) SZA (NOAA-19 ) Distance(km) Time Diff (sec)
1 07/28/2023 20:14:09 80.88, -90.23 63.39 07/28/2023 20:13:11 80.88, -90.32 63.36 1.56 58
2 07/28/2023 21:04:50 -80.88, 77.12 116.61 07/28/2023 21:04:07 -80.88, 77.16 116.62 0.75 43
3 07/28/2023 21:55:30 80.89,-115.40 63.43 07/28/2023 21:55:09 80.89,-115.46 63.41 1.18 21
4 07/28/2023 22:46:11 -80.89, 51.95 116.57 07/28/2023 22:46:05 -80.89, 52.02 116.57 1.29 6
5 07/28/2023 23:36:51 80.90,-140.57 63.47 07/28/2023 23:37:07 80.89,-140.60 63.46 1.00 16
6 07/29/2023 00:27:33 -80.88, 26.43 116.58 07/29/2023 00:28:04 -80.89, 26.52 116.55 1.78 31
7 07/29/2023 01:18:13 80.89,-166.09 63.46 07/29/2023 01:19:06 80.89,-166.11 63.48 0.46 53



Historial Predications of SNOs between METOP-B and NOAA-19
